Location: *
(58.4167°N, 22.5000°E)
Time: 10:59:00
(UTC+00:00)

Meteor 1-4 Rocket - Pass Details

Date: 22 September 2019
Orbit: 449 x 504 km, 81.2° (Epoch: 20 October)

Event Time Altitude Azimuth Distance (km) Brightness Sun altitude
Rises 17:58:38 0° 341° (NNW) 2,531 6.8 -12.1°
Reaches altitude 10° 18:00:48 10° 335° (NNW) 1,638 5.9 -12.4°
Maximum altitude 18:04:14 46° 261° (W) 639 3.6 -12.8°
Drops below altitude 10° 18:07:35 10° 188° (S) 1,600 5.0 -13.2°
Sets 18:09:40 0° 182° (S) 2,462 5.9 -13.4°
